Edwards, CA

7:42 PM PDT on September 24, 2016 (GMT -0700)
Edwards Air Force Base

Weather History for KEDW - November, 2012

Change the Weather History Date:

Monday, November 26, 2012

  Actual Average Record
Temperature  
Mean Temperature 51 °F -  
Max Temperature 70 °F 59 °F 71 °F (1998)
Min Temperature 32 °F 32 °F 17 °F (2010)
Degree Days  
Heating Degree Days 14    
Growing Degree Days 1 (Base 50)    
Moisture  
Dew Point 20 °F    
Average Humidity 34    
Maximum Humidity 52    
Minimum Humidity 18    
Precipitation  
Precipitation 0.00 in - - ()
Sea Level Pressure  
Sea Level Pressure 30.06 in    
Wind  
Wind Speed 2 mph (WNW)    
Max Wind Speed 6 mph    
Max Gust Speed -    
Visibility 10 miles    
Events      
Averages and records for this station are not official NWS values.
T = Trace of Precipitation, MM = Missing Value Source: NWS Daily Summary

Daily Weather History Graph

Daily Weather History Graph

Search for Another Location

Airport or City:

Trip Planner

Search our weather history database for the weather conditions in past years. The results will help you decide how hot, cold, wet, or windy it might be!

Date:

Astronomy

Nov. 26, 2012 Rise Set
Actual Time 6:36 AM PST 4:40 PM PST
Civil Twilight 6:09 AM PST 5:08 PM PST
Nautical Twilight 5:38 AM PST 5:39 PM PST
Astronomical Twilight 5:07 AM PST 6:09 PM PST
Moon 3:34 PM PST (11/26) 4:53 AM PST (11/26)
Length of Visible Light 10h 59m
Length of Day
10h 04m
Waxing Gibbous, 97% of the Moon is Illuminated
Nov 26
Waxing Gibbous
Nov 28
Full
Dec 6
Last Quarter
Dec 13
New
Dec 19
First Quarter

Hourly Weather History & Observations

Time (PST) Temp. Windchill Dew Point Humidity Pressure Visibility Wind Dir Wind Speed Gust Speed Precip Events Conditions
12:58 AM 41.5 °F - 22.3 °F 46% 29.97 in 10.0 mi NNE 1.2 mph - N/A   Clear
1:58 AM 36.7 °F 34.1 °F 18.9 °F 49% 29.99 in 10.0 mi SW 3.5 mph - N/A   Clear
2:58 AM 36.9 °F - 18.9 °F 48% 29.98 in 10.0 mi West 2.3 mph - N/A   Clear
3:58 AM 35.2 °F - 17.4 °F 48% 30.01 in 10.0 mi Calm Calm - N/A   Clear
4:58 AM 35.2 °F - 16.2 °F 46% 30.02 in 10.0 mi West 2.3 mph - N/A   Clear
5:58 AM 34.5 °F 31.6 °F 15.3 °F 45% 30.04 in 50.0 mi West 3.5 mph - N/A   Clear
6:58 AM 32.7 °F 28.3 °F 16.7 °F 52% 30.07 in 90.0 mi West 4.6 mph - N/A   Clear
7:58 AM 36.3 °F - 16.3 °F 44% 30.09 in 80.0 mi NNE 2.3 mph - N/A   Clear
8:58 AM 44.6 °F - 20.1 °F 38% 30.09 in 80.0 mi Calm Calm - N/A   Clear
9:58 AM 48.9 °F - 22.6 °F 36% 30.11 in 80.0 mi ENE 2.3 mph - N/A   Clear
10:58 AM 55.4 °F - 23.2 °F 29% 30.09 in 80.0 mi Variable 1.2 mph - N/A   Partly Cloudy
11:58 AM 60.1 °F - 21.4 °F 23% 30.06 in 80.0 mi North 3.5 mph - N/A   Partly Cloudy
12:58 PM 65.3 °F - 23.5 °F 20% 30.04 in 80.0 mi NNE 4.6 mph - N/A   Partly Cloudy
1:58 PM 68.7 °F - 24.8 °F 19% 30.02 in 80.0 mi NNE 4.6 mph - N/A   Partly Cloudy
2:58 PM 70.5 °F - 24.6 °F 18% 30.02 in 80.0 mi WNW 2.3 mph - N/A   Partly Cloudy
3:58 PM 70.0 °F - 25.0 °F 18% 30.02 in 80.0 mi NW 3.5 mph - N/A   Partly Cloudy
4:58 PM 65.1 °F - 24.4 °F 21% 30.03 in 70.0 mi WNW 3.5 mph - N/A   Scattered Clouds
5:58 PM 54.7 °F - 19.8 °F 26% 30.07 in 40.0 mi SSE 3.5 mph - N/A   Mostly Cloudy
6:58 PM 49.8 °F - 17.2 °F 27% 30.10 in 40.0 mi SSE 1.2 mph - N/A   Mostly Cloudy
7:58 PM 48.4 °F - 17.1 °F 29% 30.12 in 40.0 mi Calm Calm - N/A   Mostly Cloudy
8:58 PM 45.5 °F - 17.2 °F 32% 30.12 in 40.0 mi SSE 2.3 mph - N/A   Overcast
9:58 PM 45.1 °F - 16.2 °F 31% 30.13 in 40.0 mi WSW 1.2 mph - N/A   Mostly Cloudy
10:58 PM 44.1 °F - 16.5 °F 33% 30.14 in 10.0 mi SE 1.2 mph - N/A   Clear
11:58 PM 41.0 °F 37.1 °F 13.6 °F 33% 30.14 in 10.0 mi West 5.8 mph - N/A   Clear